Volver al catálogo

STARLINK-37218

ActivoComunicacionesSSO
NORAD 68403·PAYLOAD·🇺🇸 United States

Lanzado Mar 26, 2026 desde Vandenberg Space Force Base

Loading…

Próximos Pases (próximas 24 horas)

TLE

ActualizadoSource: CelesTrak SupGP

Época: Sep 14, 2026, 21:28 UTC

1 68403C 26063Z   26257.89493056  .00027852  00000+0  86443-3 0  2572
2 68403  97.2864  41.8760 0001094 101.5184 106.2322 15.33431825    11

Sigue STARLINK-37218 en tiempo real con AllMySat

Download on the App Store